Location: Anne Acres
(38.7004°N, 75.0827°W)
Time: 12:37:18
(UTC+00:00)

Vanguard 1 - Visible Passes

Search period start: 09 November 2024 00:00
Search period end: 19 November 2024 00:00
Orbit: 649 x 3824 km, 34.2° (Epoch: 09 November)

Date Brightness Start Highest point End Pass type
(mag) Time Alt. Az. Time Alt. Az. Time Alt. Az.
09 Nov 12.4 07:21:02 43° SE 07:21:02 43° SE 07:32:54 10° ESE visible
09 Nov 12.6 09:33:39 26° WSW 09:39:25 33° SSW 09:56:30 10° SSE visible
10 Nov 12.4 07:39:47 43° SSE 07:39:47 43° SSE 07:52:31 10° SE visible
10 Nov 12.8 09:52:24 19° WSW 09:59:14 27° SSW 10:14:30 10° SSE visible
11 Nov 13.6 05:45:56 12° ESE 05:45:56 12° ESE 05:46:37 10° ESE visible
11 Nov 12.4 07:58:32 40° S 07:58:32 40° S 08:11:49 10° SE visible
11 Nov 13.0 10:11:09 13° WSW 10:19:05 20° SW 10:31:40 10° S visible
12 Nov 13.5 06:04:41 14° ESE 06:04:41 14° ESE 06:06:32 10° ESE visible
12 Nov 12.5 08:17:17 35° SSW 08:17:17 35° SSW 08:30:45 10° SSE visible
12 Nov 13.3 10:32:02 10° WSW 10:38:57 14° SW 10:47:17 10° SSW visible
13 Nov 13.4 06:23:26 17° SE 06:23:26 17° SE 06:26:16 10° ESE visible
13 Nov 12.7 08:36:03 29° SSW 08:36:03 29° SSW 08:49:14 10° SSE visible
14 Nov 13.3 06:42:11 18° SE 06:42:11 18° SE 06:45:46 10° SE visible
14 Nov 12.9 08:54:48 22° SSW 08:55:12 22° SSW 09:07:04 10° SSE visible
14 Nov 11.5 23:50:20 10° S 23:50:56 11° S 23:50:56 11° S visible
15 Nov 13.2 07:00:55 19° SSE 07:00:55 19° SSE 07:04:58 10° SE visible
15 Nov 13.1 09:13:32 16° SW 09:15:04 16° SSW 09:23:52 10° S visible
16 Nov 11.4 00:08:25 10° SSW 00:09:35 15° S 00:09:35 15° S visible
16 Nov 13.2 07:19:38 18° SSE 07:19:38 18° SSE 07:23:48 10° SSE visible
16 Nov 13.3 09:32:39 10° SW 09:34:58 10° SSW 09:37:29 10° SSW visible
17 Nov 11.6 00:27:11 10° SW 00:28:13 15° SSW 00:28:13 15° SSW visible
17 Nov 13.3 07:38:19 16° S 07:38:19 16° S 07:42:07 10° SSE visible
18 Nov 11.9 00:46:15 10° SW 00:46:51 13° SW 00:46:51 13° SW visible
18 Nov 13.3 07:56:59 13° S 07:56:59 13° S 07:59:38 10° S visible
18 Nov 11.3 22:47:40 10° S 22:50:20 14° SSE 22:52:46 10° ESE visible
